OCN4AP EDDM-LGMK

Flight info

Callsign OCN4AP
Flight time 2h 2m
Altitude 37000
Route ROTAX4E ROTAX L603 LATLO DCT OBEDI DCT KFT DCT MAGAM DCT TIVNU DCT KEB DCT MEDUX UM867 KOGAT DCT ERANA DCT TSL UL617 SKP UN137 AGAPU AGAPU1U
Aircraft A320/M-SDE2E3FGIJ1LORWXYZ/HB1

Departure

Time 2026-05-09 07:32
Airport Munich Airport (EDDM)

Arrival

Time 2026-05-09 09:34
Airport Mykonos Island National Airport (LGMK)
Time Latitude Longitude Altitude Speed Heading
2026-05-09 07:10 48.35054 11.80601 1486 ft 0 kts 173°
2026-05-09 07:17 48.35055 11.80601 1485 ft 2 kts 173°
2026-05-09 07:18 48.35072 11.80598 1482 ft 2 kts 173°
2026-05-09 07:18 48.35089 11.80595 1477 ft 2 kts 173°
2026-05-09 07:18 48.35106 11.80592 1478 ft 2 kts 173°
2026-05-09 07:18 48.35123 11.80588 1479 ft 2 kts 188°
2026-05-09 07:19 48.35139 11.80594 1475 ft 2 kts 233°
2026-05-09 07:19 48.35148 11.80616 1473 ft 2 kts 252°
2026-05-09 07:19 48.35150 11.80633 1475 ft 0 kts 259°
2026-05-09 07:21 48.35148 11.80613 1483 ft 6 kts 262°
2026-05-09 07:21 48.35138 11.80493 1476 ft 16 kts 263°
2026-05-09 07:22 48.35123 11.80315 1474 ft 14 kts 257°
2026-05-09 07:22 48.35107 11.80172 1485 ft 14 kts 264°
2026-05-09 07:22 48.35097 11.80031 1478 ft 14 kts 263°
2026-05-09 07:22 48.35085 11.79878 1475 ft 16 kts 263°
2026-05-09 07:23 48.35070 11.79712 1478 ft 12 kts 254°
2026-05-09 07:23 48.34998 11.79668 1485 ft 14 kts 172°
2026-05-09 07:23 48.34893 11.79687 1482 ft 17 kts 173°
2026-05-09 07:23 48.34803 11.79664 1471 ft 12 kts 239°
2026-05-09 07:24 48.34789 11.79529 1485 ft 15 kts 263°
2026-05-09 07:24 48.34776 11.79362 1481 ft 18 kts 263°
2026-05-09 07:24 48.34761 11.79165 1485 ft 20 kts 262°
2026-05-09 07:24 48.34743 11.78939 1485 ft 23 kts 263°
2026-05-09 07:25 48.34724 11.78688 1485 ft 25 kts 264°
2026-05-09 07:25 48.34704 11.78425 1485 ft 26 kts 263°
2026-05-09 07:25 48.34683 11.78154 1479 ft 25 kts 263°
2026-05-09 07:25 48.34662 11.77892 1485 ft 26 kts 263°
2026-05-09 07:26 48.34642 11.77620 1485 ft 25 kts 263°
2026-05-09 07:26 48.34628 11.77450 1480 ft 14 kts 263°
2026-05-09 07:26 48.34618 11.77317 1485 ft 12 kts 263°
2026-05-09 07:26 48.34610 11.77203 1478 ft 10 kts 263°
2026-05-09 07:27 48.34602 11.77103 1485 ft 10 kts 263°
2026-05-09 07:27 48.34591 11.76957 1485 ft 18 kts 264°
2026-05-09 07:27 48.34576 11.76764 1483 ft 19 kts 263°
2026-05-09 07:27 48.34560 11.76567 1483 ft 19 kts 264°
2026-05-09 07:28 48.34545 11.76371 1485 ft 19 kts 263°
2026-05-09 07:28 48.34532 11.76189 1485 ft 17 kts 263°
2026-05-09 07:28 48.34519 11.76023 1481 ft 15 kts 263°
2026-05-09 07:28 48.34507 11.75875 1477 ft 13 kts 263°
2026-05-09 07:29 48.34496 11.75731 1479 ft 16 kts 264°
2026-05-09 07:29 48.34483 11.75542 1481 ft 21 kts 263°
2026-05-09 07:29 48.34464 11.75306 1475 ft 22 kts 263°
2026-05-09 07:29 48.34415 11.75216 1478 ft 10 kts 177°
2026-05-09 07:30 48.34335 11.75230 1485 ft 14 kts 174°
2026-05-09 07:30 48.34222 11.75248 1479 ft 18 kts 173°
2026-05-09 07:30 48.34104 11.75273 1478 ft 10 kts 171°
2026-05-09 07:30 48.34085 11.75330 1485 ft 6 kts 80°
2026-05-09 07:31 48.34086 11.75346 1483 ft 0 kts 83°
2026-05-09 07:31 48.34091 11.75408 1475 ft 26 kts 83°
2026-05-09 07:31 48.34144 11.76094 1485 ft 101 kts 83°
2026-05-09 07:32 48.34249 11.77455 1477 ft 157 kts 83°
2026-05-09 07:32 48.34375 11.79149 2065 ft 165 kts 84°
2026-05-09 07:32 48.34499 11.80877 2817 ft 171 kts 84°
2026-05-09 07:32 48.34632 11.82741 3198 ft 193 kts 84°
2026-05-09 07:33 48.34789 11.84870 3505 ft 217 kts 84°
2026-05-09 07:33 48.35163 11.89700 4974 ft 239 kts 83°
2026-05-09 07:33 48.35339 11.92210 5830 ft 244 kts 89°
2026-05-09 07:34 48.35023 11.94762 6469 ft 260 kts 112°
2026-05-09 07:34 48.34282 11.97346 7046 ft 275 kts 114°
2026-05-09 07:34 48.33486 12.00007 7854 ft 282 kts 115°
2026-05-09 07:34 48.32681 12.02680 8706 ft 286 kts 115°
2026-05-09 07:35 48.31852 12.05439 9569 ft 291 kts 115°
2026-05-09 07:35 48.30894 12.08154 10368 ft 295 kts 127°
2026-05-09 07:35 48.29512 12.10453 11096 ft 301 kts 141°
2026-05-09 07:35 48.27701 12.12235 11372 ft 322 kts 157°
2026-05-09 07:36 48.25587 12.13635 11739 ft 340 kts 158°
2026-05-09 07:36 48.23422 12.15054 12423 ft 346 kts 158°
2026-05-09 07:36 48.21201 12.16512 13172 ft 351 kts 158°
2026-05-09 07:36 48.18951 12.17995 13914 ft 355 kts 158°
2026-05-09 07:37 48.16666 12.19508 14572 ft 359 kts 158°
2026-05-09 07:37 48.14367 12.21044 15230 ft 363 kts 156°
2026-05-09 07:37 48.12179 12.23000 15883 ft 369 kts 146°
2026-05-09 07:37 48.10082 12.25261 16546 ft 373 kts 146°
2026-05-09 07:38 48.07981 12.27511 17196 ft 376 kts 146°
2026-05-09 07:38 48.05832 12.29802 17844 ft 380 kts 147°
2026-05-09 07:38 48.03660 12.32110 18478 ft 384 kts 147°
2026-05-09 07:38 48.01469 12.34436 19047 ft 387 kts 147°
2026-05-09 07:39 47.99294 12.36745 19617 ft 389 kts 147°
2026-05-09 07:39 47.97138 12.39234 20166 ft 394 kts 140°
2026-05-09 07:39 47.95141 12.42033 20722 ft 397 kts 139°
2026-05-09 07:39 47.93120 12.44866 21265 ft 400 kts 140°
2026-05-09 07:40 47.91079 12.47717 21802 ft 402 kts 140°
2026-05-09 07:40 47.89014 12.50595 22335 ft 405 kts 140°
2026-05-09 07:40 47.86940 12.53476 22851 ft 408 kts 140°
2026-05-09 07:40 47.84853 12.56367 23361 ft 411 kts 140°
2026-05-09 07:41 47.82777 12.59243 23822 ft 414 kts 140°
2026-05-09 07:41 47.80674 12.62206 24238 ft 418 kts 139°
2026-05-09 07:41 47.78596 12.65266 24618 ft 422 kts 139°
2026-05-09 07:41 47.76525 12.68393 24995 ft 426 kts 138°
2026-05-09 07:42 47.74444 12.71563 25355 ft 430 kts 138°
2026-05-09 07:42 47.72340 12.74757 25637 ft 434 kts 138°
2026-05-09 07:42 47.70188 12.77992 25990 ft 438 kts 139°
2026-05-09 07:42 47.68034 12.81206 26356 ft 440 kts 139°
2026-05-09 07:43 47.65883 12.84395 26690 ft 443 kts 139°
2026-05-09 07:43 47.63684 12.87646 27050 ft 446 kts 140°
2026-05-09 07:43 47.61467 12.90917 27373 ft 450 kts 140°
2026-05-09 07:43 47.59238 12.94204 27716 ft 454 kts 140°
2026-05-09 07:44 47.56990 12.97520 28049 ft 457 kts 139°
2026-05-09 07:44 47.54740 13.00835 28371 ft 460 kts 140°
2026-05-09 07:44 47.52452 13.04200 28681 ft 464 kts 140°
2026-05-09 07:44 47.50153 13.07579 29003 ft 467 kts 140°
2026-05-09 07:45 47.47836 13.10977 29341 ft 470 kts 140°
2026-05-09 07:45 47.45533 13.14351 29626 ft 472 kts 140°
2026-05-09 07:45 47.43175 13.17800 29949 ft 474 kts 141°
2026-05-09 07:45 47.40837 13.21216 30214 ft 477 kts 141°
2026-05-09 07:46 47.38453 13.24698 30474 ft 480 kts 141°
2026-05-09 07:46 47.36097 13.28133 30739 ft 483 kts 141°
2026-05-09 07:46 47.33700 13.31626 30987 ft 485 kts 140°
2026-05-09 07:46 47.31423 13.35336 31259 ft 491 kts 134°
2026-05-09 07:47 47.29220 13.39206 31507 ft 492 kts 134°
2026-05-09 07:47 47.27015 13.43072 31852 ft 492 kts 135°
2026-05-09 07:47 47.24798 13.46946 32243 ft 491 kts 135°
2026-05-09 07:47 47.22620 13.50740 32591 ft 491 kts 135°
2026-05-09 07:48 47.20405 13.54592 32915 ft 490 kts 134°
2026-05-09 07:48 47.18204 13.58413 33324 ft 488 kts 134°
2026-05-09 07:48 47.16006 13.62224 33714 ft 487 kts 134°
2026-05-09 07:48 47.13809 13.66033 34056 ft 486 kts 134°
2026-05-09 07:49 47.11648 13.69768 34333 ft 485 kts 134°
2026-05-09 07:49 47.09457 13.73547 34646 ft 485 kts 134°
2026-05-09 07:49 47.07261 13.77334 34961 ft 485 kts 134°
2026-05-09 07:49 47.05072 13.81107 35272 ft 484 kts 134°
2026-05-09 07:50 47.02912 13.84825 35558 ft 483 kts 134°
2026-05-09 07:50 47.00729 13.88572 35841 ft 482 kts 134°
2026-05-09 07:50 46.98541 13.92323 36111 ft 481 kts 134°
2026-05-09 07:50 46.96361 13.96057 36400 ft 480 kts 134°
2026-05-09 07:51 46.94190 13.99770 36651 ft 480 kts 134°
2026-05-09 07:51 46.92019 14.03481 36873 ft 479 kts 134°
2026-05-09 07:51 46.89849 14.07183 37055 ft 479 kts 134°
2026-05-09 07:52 46.85528 14.14539 37131 ft 477 kts 134°
2026-05-09 07:52 46.81216 14.21862 37135 ft 477 kts 134°
2026-05-09 07:53 46.76883 14.29203 37136 ft 476 kts 134°
2026-05-09 07:53 46.72569 14.36496 37131 ft 476 kts 134°
2026-05-09 07:54 46.68234 14.43811 37142 ft 475 kts 134°
2026-05-09 07:54 46.63918 14.51051 37127 ft 475 kts 134°
2026-05-09 07:55 46.59631 14.58406 37134 ft 476 kts 132°
2026-05-09 07:55 46.55517 14.65998 37138 ft 477 kts 131°
2026-05-09 07:56 46.51448 14.73582 37141 ft 477 kts 131°
2026-05-09 07:56 46.47336 14.81098 37142 ft 476 kts 131°
2026-05-09 07:57 46.43176 14.88593 37147 ft 476 kts 132°
2026-05-09 07:57 46.39012 14.96060 37134 ft 475 kts 132°
2026-05-09 07:58 46.35557 15.02271 37128 ft 475 kts 132°
2026-05-09 07:58 46.30713 15.10985 37135 ft 476 kts 132°
2026-05-09 07:59 46.26567 15.18412 37134 ft 476 kts 132°
2026-05-09 07:59 46.23098 15.24601 37139 ft 475 kts 132°
2026-05-09 08:00 46.18924 15.32035 37143 ft 475 kts 132°
2026-05-09 08:00 46.14770 15.39415 37134 ft 475 kts 132°
2026-05-09 08:01 46.10596 15.46806 37114 ft 475 kts 132°
2026-05-09 08:01 46.06428 15.54165 37139 ft 475 kts 132°
2026-05-09 08:02 46.02244 15.61536 37136 ft 475 kts 132°
2026-05-09 08:02 45.98086 15.68861 37136 ft 474 kts 133°
2026-05-09 08:03 45.93448 15.75575 37128 ft 471 kts 140°
2026-05-09 08:03 45.88703 15.82085 37129 ft 471 kts 140°
2026-05-09 08:04 45.83987 15.88558 37111 ft 471 kts 140°
2026-05-09 08:04 45.79244 15.95060 37100 ft 471 kts 140°
2026-05-09 08:05 45.74508 16.01544 37100 ft 471 kts 140°
2026-05-09 08:05 45.69785 16.07986 37107 ft 471 kts 140°
2026-05-09 08:06 45.65025 16.14461 37108 ft 472 kts 140°
2026-05-09 08:06 45.60259 16.20927 37106 ft 472 kts 140°
2026-05-09 08:07 45.55519 16.27338 37113 ft 471 kts 140°
2026-05-09 08:07 45.50733 16.33778 37118 ft 471 kts 140°
2026-05-09 08:08 45.45968 16.40190 37117 ft 471 kts 140°
2026-05-09 08:08 45.41229 16.46564 37114 ft 470 kts 140°
2026-05-09 08:09 45.36458 16.52960 37109 ft 470 kts 140°
2026-05-09 08:09 45.31704 16.59315 37096 ft 470 kts 140°
2026-05-09 08:10 45.26919 16.65687 37100 ft 471 kts 140°
2026-05-09 08:10 45.22158 16.72022 37105 ft 471 kts 140°
2026-05-09 08:11 45.17356 16.78405 37103 ft 471 kts 140°
2026-05-09 08:11 45.12592 16.84711 37098 ft 471 kts 140°
2026-05-09 08:12 45.05389 16.94216 37098 ft 472 kts 140°
2026-05-09 08:12 45.00585 17.00543 37107 ft 472 kts 140°
2026-05-09 08:13 44.95772 17.06868 37106 ft 472 kts 140°
2026-05-09 08:13 44.91039 17.13317 37112 ft 473 kts 138°
2026-05-09 08:14 44.86393 17.19824 37115 ft 474 kts 138°
2026-05-09 08:14 44.81705 17.26338 37114 ft 473 kts 139°
2026-05-09 08:15 44.76985 17.32800 37122 ft 473 kts 139°
2026-05-09 08:15 44.72270 17.39235 37123 ft 473 kts 139°
2026-05-09 08:16 44.67551 17.45673 37123 ft 473 kts 139°
2026-05-09 08:16 44.62833 17.52102 37126 ft 473 kts 139°
2026-05-09 08:17 44.58109 17.58519 37114 ft 473 kts 139°
2026-05-09 08:17 44.53385 17.64923 37125 ft 473 kts 139°
2026-05-09 08:18 44.48657 17.71328 37124 ft 472 kts 139°
2026-05-09 08:18 44.43925 17.77725 37129 ft 472 kts 139°
2026-05-09 08:19 44.39188 17.84098 37131 ft 472 kts 139°
2026-05-09 08:19 44.34449 17.90459 37114 ft 472 kts 139°
2026-05-09 08:20 44.29701 17.96815 37131 ft 473 kts 139°
2026-05-09 08:20 44.24953 18.03156 37129 ft 472 kts 139°
2026-05-09 08:21 44.20209 18.09489 37134 ft 472 kts 139°
2026-05-09 08:21 44.15484 18.15778 37134 ft 472 kts 139°
2026-05-09 08:22 44.10713 18.22107 37132 ft 472 kts 139°
2026-05-09 08:22 44.05966 18.28393 37123 ft 472 kts 139°
2026-05-09 08:23 44.01193 18.34707 37129 ft 473 kts 139°
2026-05-09 08:23 43.96420 18.40986 37135 ft 473 kts 139°
2026-05-09 08:24 43.91640 18.47280 37133 ft 473 kts 138°
2026-05-09 08:24 43.86939 18.53659 37132 ft 473 kts 137°
2026-05-09 08:25 43.82297 18.60050 37127 ft 473 kts 137°
2026-05-09 08:25 43.77602 18.66449 37132 ft 473 kts 138°
2026-05-09 08:26 43.72901 18.72783 37138 ft 473 kts 138°
2026-05-09 08:26 43.68176 18.79148 37134 ft 473 kts 138°
2026-05-09 08:27 43.63477 18.85480 37131 ft 472 kts 138°
2026-05-09 08:27 43.58789 18.91776 37119 ft 472 kts 138°
2026-05-09 08:28 43.54072 18.98098 37118 ft 472 kts 138°
2026-05-09 08:28 43.49352 19.04392 37120 ft 472 kts 138°
2026-05-09 08:29 43.44628 19.10678 37121 ft 472 kts 138°
2026-05-09 08:29 43.39899 19.16958 37124 ft 472 kts 137°
2026-05-09 08:30 43.35152 19.23267 37119 ft 472 kts 138°
2026-05-09 08:30 43.30447 19.29506 37113 ft 472 kts 138°
2026-05-09 08:31 43.25713 19.35768 37122 ft 472 kts 138°
2026-05-09 08:31 43.20995 19.41984 37113 ft 472 kts 138°
2026-05-09 08:32 43.16257 19.48202 37129 ft 472 kts 138°
2026-05-09 08:33 43.09132 19.57545 37124 ft 471 kts 138°
2026-05-09 08:33 43.04395 19.63741 37119 ft 471 kts 138°
2026-05-09 08:34 42.99668 19.69909 37119 ft 471 kts 138°
2026-05-09 08:34 42.94919 19.76084 37116 ft 471 kts 138°
2026-05-09 08:35 42.90143 19.82283 37116 ft 472 kts 138°
2026-05-09 08:35 42.85401 19.88430 37105 ft 471 kts 138°
2026-05-09 08:36 42.80641 19.94591 37112 ft 471 kts 138°
2026-05-09 08:36 42.75908 20.00702 37115 ft 471 kts 138°
2026-05-09 08:37 42.71599 20.07413 37106 ft 472 kts 130°
2026-05-09 08:37 42.67424 20.14315 37105 ft 471 kts 130°
2026-05-09 08:38 42.63260 20.21176 37104 ft 471 kts 130°
2026-05-09 08:38 42.59097 20.28010 37101 ft 471 kts 131°
2026-05-09 08:39 42.54884 20.34906 37091 ft 471 kts 130°
2026-05-09 08:39 42.50716 20.41735 37101 ft 471 kts 130°
2026-05-09 08:40 42.46523 20.48586 37106 ft 471 kts 130°
2026-05-09 08:40 42.42347 20.55377 37110 ft 471 kts 130°
2026-05-09 08:41 42.38167 20.62162 37106 ft 470 kts 131°
2026-05-09 08:41 42.33982 20.68952 37105 ft 470 kts 130°
2026-05-09 08:42 42.30492 20.74606 37087 ft 470 kts 131°
2026-05-09 08:42 42.26279 20.81413 37096 ft 470 kts 131°
2026-05-09 08:43 42.22090 20.88162 37084 ft 470 kts 130°
2026-05-09 08:43 42.17884 20.94943 37099 ft 470 kts 131°
2026-05-09 08:44 42.13672 21.01690 37093 ft 470 kts 131°
2026-05-09 08:44 42.09232 21.08129 37100 ft 469 kts 138°
2026-05-09 08:45 42.04506 21.14132 37096 ft 469 kts 138°
2026-05-09 08:45 41.99765 21.20148 37088 ft 468 kts 138°
2026-05-09 08:46 41.95024 21.26149 37099 ft 469 kts 138°
2026-05-09 08:46 41.90240 21.32188 37075 ft 468 kts 138°
2026-05-09 08:47 41.85519 21.38143 37083 ft 469 kts 138°
2026-05-09 08:47 41.80744 21.44156 37080 ft 468 kts 138°
2026-05-09 08:48 41.76019 21.50090 37066 ft 468 kts 139°
2026-05-09 08:48 41.71264 21.56039 37062 ft 469 kts 139°
2026-05-09 08:49 41.66479 21.62017 37067 ft 470 kts 139°
2026-05-09 08:49 41.61694 21.67990 37076 ft 470 kts 139°
2026-05-09 08:50 41.56933 21.73921 37077 ft 470 kts 139°
2026-05-09 08:50 41.52135 21.79880 37085 ft 470 kts 139°
2026-05-09 08:51 41.47375 21.85774 37071 ft 470 kts 139°
2026-05-09 08:51 41.42561 21.91729 37076 ft 470 kts 139°
2026-05-09 08:52 41.37742 21.97675 37086 ft 471 kts 139°
2026-05-09 08:52 41.32947 22.03582 37089 ft 471 kts 139°
2026-05-09 08:53 41.28149 22.09466 37091 ft 471 kts 139°
2026-05-09 08:53 41.23320 22.15380 37074 ft 470 kts 139°
2026-05-09 08:54 41.18526 22.21260 37072 ft 470 kts 139°
2026-05-09 08:54 41.13669 22.27038 37075 ft 470 kts 142°
2026-05-09 08:55 41.08587 22.32493 37081 ft 470 kts 144°
2026-05-09 08:55 41.03459 22.37819 37077 ft 469 kts 144°
2026-05-09 08:56 40.98346 22.43230 37067 ft 469 kts 143°
2026-05-09 08:56 40.93258 22.48697 37064 ft 470 kts 143°
2026-05-09 08:57 40.88201 22.54130 37066 ft 471 kts 143°
2026-05-09 08:57 40.83111 22.59559 37070 ft 471 kts 143°
2026-05-09 08:58 40.77989 22.64995 37075 ft 472 kts 143°
2026-05-09 08:58 40.72868 22.70428 37079 ft 472 kts 143°
2026-05-09 08:59 40.67752 22.75854 37055 ft 472 kts 143°
2026-05-09 08:59 40.62646 22.81263 37050 ft 473 kts 144°
2026-05-09 09:00 40.57488 22.86694 37048 ft 473 kts 144°
2026-05-09 09:00 40.52367 22.92077 37051 ft 473 kts 144°
2026-05-09 09:01 40.47216 22.97411 37058 ft 472 kts 148°
2026-05-09 09:01 40.41394 23.01255 37064 ft 465 kts 163°
2026-05-09 09:02 40.35359 23.04249 37067 ft 465 kts 163°
2026-05-09 09:02 40.29325 23.07248 37071 ft 465 kts 163°
2026-05-09 09:03 40.23260 23.10262 37055 ft 465 kts 163°
2026-05-09 09:03 40.17182 23.13273 37054 ft 466 kts 163°
2026-05-09 09:04 40.11138 23.16261 37056 ft 466 kts 163°
2026-05-09 09:04 40.05047 23.19261 37060 ft 467 kts 163°
2026-05-09 09:05 39.98966 23.22264 37053 ft 468 kts 163°
2026-05-09 09:05 39.92877 23.25259 37058 ft 468 kts 163°
2026-05-09 09:06 39.86795 23.28250 37060 ft 469 kts 163°
2026-05-09 09:06 39.80669 23.31257 37062 ft 469 kts 163°
2026-05-09 09:07 39.74591 23.34220 37043 ft 469 kts 164°
2026-05-09 09:07 39.68470 23.37204 37040 ft 470 kts 164°
2026-05-09 09:08 39.62332 23.40196 37046 ft 470 kts 164°
2026-05-09 09:08 39.56193 23.43174 37053 ft 470 kts 164°
2026-05-09 09:09 39.50089 23.46135 37031 ft 471 kts 165°
2026-05-09 09:09 39.43922 23.49117 37035 ft 472 kts 165°
2026-05-09 09:10 39.37747 23.52105 37034 ft 473 kts 165°
2026-05-09 09:10 39.31598 23.55087 37028 ft 474 kts 165°
2026-05-09 09:11 39.25414 23.58066 37010 ft 474 kts 165°
2026-05-09 09:11 39.19264 23.61112 37012 ft 478 kts 159°
2026-05-09 09:12 39.13606 23.65815 37018 ft 486 kts 147°
2026-05-09 09:12 39.08182 23.70985 37022 ft 486 kts 148°
2026-05-09 09:13 39.02712 23.76140 37002 ft 487 kts 149°
2026-05-09 09:13 38.97246 23.81274 37019 ft 488 kts 149°
2026-05-09 09:14 38.91791 23.86424 37025 ft 488 kts 148°
2026-05-09 09:14 38.86292 23.91606 37026 ft 489 kts 149°
2026-05-09 09:15 38.80800 23.96749 37027 ft 490 kts 149°
2026-05-09 09:15 38.75269 24.01927 37021 ft 493 kts 149°
2026-05-09 09:16 38.69737 24.07101 37031 ft 494 kts 149°
2026-05-09 09:16 38.61391 24.14875 37039 ft 494 kts 149°
2026-05-09 09:17 38.55854 24.20023 36514 ft 497 kts 149°
2026-05-09 09:17 38.53035 24.22637 35051 ft 502 kts 150°
2026-05-09 09:17 38.50166 24.25290 33455 ft 511 kts 151°
2026-05-09 09:18 38.47289 24.27954 32179 ft 508 kts 151°
2026-05-09 09:18 38.44445 24.30595 31077 ft 502 kts 151°
2026-05-09 09:18 38.41614 24.33122 30034 ft 489 kts 156°
2026-05-09 09:18 38.38759 24.35302 28898 ft 480 kts 156°
2026-05-09 09:19 38.35916 24.37465 27856 ft 470 kts 156°
2026-05-09 09:19 38.33133 24.39580 26882 ft 460 kts 156°
2026-05-09 09:19 38.30406 24.41644 25821 ft 452 kts 156°
2026-05-09 09:19 38.27686 24.43687 24558 ft 450 kts 155°
2026-05-09 09:20 38.24991 24.45705 23210 ft 448 kts 155°
2026-05-09 09:20 38.22338 24.47690 21863 ft 447 kts 155°
2026-05-09 09:20 38.19632 24.49716 21003 ft 449 kts 154°
2026-05-09 09:20 38.16957 24.51725 20358 ft 444 kts 154°
2026-05-09 09:21 38.14313 24.53712 19731 ft 439 kts 154°
2026-05-09 09:21 38.11681 24.55688 19045 ft 442 kts 154°
2026-05-09 09:21 38.09035 24.57673 18494 ft 438 kts 154°
2026-05-09 09:21 38.06422 24.59637 17856 ft 433 kts 154°
2026-05-09 09:22 38.03863 24.61556 17214 ft 428 kts 154°
2026-05-09 09:22 38.01313 24.63466 16571 ft 424 kts 154°
2026-05-09 09:22 37.98783 24.65360 15941 ft 419 kts 154°
2026-05-09 09:22 37.96268 24.67235 15324 ft 415 kts 154°
2026-05-09 09:23 37.93792 24.69083 14734 ft 411 kts 153°
2026-05-09 09:23 37.91356 24.70898 14151 ft 408 kts 153°
2026-05-09 09:23 37.88918 24.72711 13522 ft 403 kts 153°
2026-05-09 09:23 37.86505 24.74506 12861 ft 399 kts 153°
2026-05-09 09:24 37.84151 24.76260 12303 ft 393 kts 153°
2026-05-09 09:24 37.81826 24.77994 12031 ft 379 kts 153°
2026-05-09 09:24 37.80336 24.79106 11861 ft 370 kts 153°
2026-05-09 09:24 37.78146 24.80739 11614 ft 358 kts 154°
2026-05-09 09:25 37.76033 24.82310 11368 ft 346 kts 154°
2026-05-09 09:25 37.73974 24.83838 11123 ft 336 kts 154°
2026-05-09 09:25 37.71981 24.85316 10825 ft 329 kts 154°
2026-05-09 09:25 37.70003 24.86775 10350 ft 329 kts 154°
2026-05-09 09:26 37.68072 24.88201 10169 ft 319 kts 154°
2026-05-09 09:26 37.66190 24.89593 10055 ft 307 kts 154°
2026-05-09 09:26 37.64372 24.90937 9829 ft 299 kts 155°
2026-05-09 09:26 37.62598 24.92246 9436 ft 298 kts 155°
2026-05-09 09:27 37.60805 24.93566 9030 ft 296 kts 155°
2026-05-09 09:27 37.59021 24.94880 8634 ft 295 kts 155°
2026-05-09 09:27 37.57252 24.96182 8236 ft 294 kts 154°
2026-05-09 09:27 37.55483 24.97482 7835 ft 292 kts 154°
2026-05-09 09:28 37.53749 24.98755 7368 ft 293 kts 154°
2026-05-09 09:28 37.51979 25.00058 7010 ft 291 kts 154°
2026-05-09 09:28 37.50251 25.01336 6719 ft 285 kts 154°
2026-05-09 09:28 37.48609 25.02706 6422 ft 284 kts 141°
2026-05-09 09:29 37.47516 25.04784 6126 ft 289 kts 112°
2026-05-09 09:29 37.47259 25.07281 5824 ft 287 kts 93°
2026-05-09 09:29 37.47120 25.09757 5517 ft 280 kts 100°
2026-05-09 09:29 37.46834 25.12133 5149 ft 267 kts 103°
2026-05-09 09:30 37.46510 25.14358 4781 ft 255 kts 107°
2026-05-09 09:30 37.45903 25.16398 4401 ft 245 kts 119°
2026-05-09 09:30 37.45170 25.18320 3945 ft 242 kts 120°
2026-05-09 09:30 37.44440 25.20189 3636 ft 233 kts 120°
2026-05-09 09:31 37.43735 25.21990 3346 ft 226 kts 120°
2026-05-09 09:31 37.43047 25.23742 3070 ft 219 kts 120°
2026-05-09 09:31 37.42450 25.25464 2796 ft 210 kts 108°
2026-05-09 09:32 37.43405 25.28471 2181 ft 203 kts 25°
2026-05-09 09:32 37.44733 25.28682 1744 ft 187 kts 351°
2026-05-09 09:32 37.45985 25.28656 1466 ft 177 kts 20°
2026-05-09 09:32 37.46735 25.29700 1267 ft 158 kts 78°
2026-05-09 09:33 37.46804 25.31048 1075 ft 150 kts 98°
2026-05-09 09:33 37.46551 25.32258 987 ft 140 kts 115°
2026-05-09 09:33 37.46135 25.33332 795 ft 134 kts 118°
2026-05-09 09:33 37.45428 25.34053 664 ft 138 kts 160°
2026-05-09 09:34 37.44507 25.34381 470 ft 136 kts 155°
2026-05-09 09:34 37.43658 25.34759 411 ft 110 kts 160°
2026-05-09 09:34 37.43200 25.34961 411 ft 46 kts 160°
2026-05-09 09:36 37.42934 25.35080 413 ft 16 kts 341°
2026-05-09 09:36 37.43056 25.35025 414 ft 22 kts 340°
2026-05-09 09:36 37.43211 25.34956 413 ft 25 kts 341°
2026-05-09 09:37 37.43360 25.34890 412 ft 17 kts 340°
2026-05-09 09:37 37.43407 25.34806 410 ft 12 kts 289°
2026-05-09 09:37 37.43454 25.34734 408 ft 10 kts 336°
2026-05-09 09:37 37.43515 25.34707 408 ft 9 kts 341°
2026-05-09 09:38 37.43552 25.34683 408 ft 3 kts 298°
2026-05-09 09:38 37.43549 25.34649 407 ft 4 kts 254°
2026-05-09 09:38 37.43543 25.34627 407 ft 2 kts 251°
2026-05-09 09:38 37.43541 25.34622 407 ft 0 kts 250°